Location: Wyoming Infrared Observatory
(41.0971°N, 105.9765°W)
Time: 06:35:37
(UTC-06:00)

Amateur Radio Satellites - All Passes

Search period start: 01 November 2014 06:05
Search period end: 02 November 2014 05:05
Location: Wyoming Infrared Observatory, 41.0971°N, 105.9765°W

Satellite Date Start Highest point End Downlink Frequencies (MHz)
Time Altitude Azimuth
Saudisat 1A 01 Nov 06:33:40 06:37:55 49° 307° (NW) 06:42:13 436.775 MHz
OPAL 01 Nov 06:39:36 06:43:17 20° 265° (W) 06:46:56 ?
STRAND 1 01 Nov 06:56:40 07:01:47 75° 74° (ENE) 07:06:57 ?
RS-15 01 Nov 06:59:27 07:10:34 72° 243° (WSW) 07:22:11 29.354 - 29.394 USB, Beacon 29.352 USB
Uosat F 01 Nov 07:02:13 07:05:33 18° 298° (WNW) 07:08:52 435.120 FM
MaSat-1 01 Nov 07:06:26 07:08:07 16° 56° (NE) 07:09:44 437.345 MHz
JAS-2 01 Nov 07:17:23 07:25:04 58° 290° (WNW) 07:32:28 435.800 - 435.900 CW/SSB, 435.910 FM
Hamsat 01 Nov 07:39:32 07:43:15 31° 290° (WNW) 07:47:00 145.90 MHz
AO-7 01 Nov 07:39:37 07:45:28 22° 308° (NW) 07:51:19 29.400 - 29.500 MHz
SO-67 01 Nov 07:54:01 07:57:22 47° 99° (E) 08:00:41 435.3500 MHz FM
STRAND 1 01 Nov 08:39:17 08:41:30 13° 270° (W) 08:43:44 ?
MaSat-1 01 Nov 08:42:35 08:43:14 11° 254° (WSW) 08:43:53 437.345 MHz
KITSAT 1 01 Nov 09:04:03 09:04:14 10° 97° (E) 09:04:25 435.175 FM
JAS-2 01 Nov 09:05:23 09:08:26 13° 309° (NW) 09:11:28 435.800 - 435.900 CW/SSB, 435.910 FM
HO-68 01 Nov 09:08:40 09:14:42 28° 95° (E) 09:20:40 435.675 MHz FM
RS-15 01 Nov 09:15:17 09:20:55 15° 263° (W) 09:26:40 29.354 - 29.394 USB, Beacon 29.352 USB
ISS 01 Nov 09:23:47 09:26:27 23° 134° (SE) 09:29:09 145.800 FM
SO-67 01 Nov 09:29:37 09:29:53 10° 295° (WNW) 09:30:09 435.3500 MHz FM
UKube-1 01 Nov 09:50:45 09:53:37 17° 93° (E) 09:56:28 145.840 MHz, 145.915 MHz
Sapphire 01 Nov 10:21:41 10:25:46 21° 45° (NE) 10:29:50 437.095 MHz 1200 baud AX-25 AFSK
Oscar 11 01 Nov 10:23:54 10:27:57 39° 98° (E) 10:31:59 145.825 FM, Beacon 2401.500 USB
SO-50 01 Nov 10:36:58 10:40:52 30° 114° (ESE) 10:44:53 436.795 FM
PCSat 01 Nov 10:42:50 10:47:39 31° 50° (NE) 10:52:26 145.825 MHz
FUNcube-1 01 Nov 10:43:32 10:47:03 26° 95° (E) 10:50:32 145.950 - 145.970 MHz USB
KITSAT 1 01 Nov 10:50:06 10:58:01 63° 115° (ESE) 11:05:58 435.175 FM
HO-68 01 Nov 10:55:43 11:02:42 56° 292° (WNW) 11:09:39 435.675 MHz FM
ISS 01 Nov 10:59:48 11:02:59 42° 330° (NNW) 11:06:11 145.800 FM
UKube-1 01 Nov 11:25:51 11:29:59 42° 289° (WNW) 11:34:05 145.840 MHz, 145.915 MHz
ZACube-1 01 Nov 11:36:43 11:40:54 75° 284° (WNW) 11:45:02 437.345 MHz
Oscar 11 01 Nov 12:00:50 12:03:51 19° 294° (WNW) 12:06:52 145.825 FM, Beacon 2401.500 USB
Sapphire 01 Nov 12:04:17 12:09:41 67° 244° (WSW) 12:15:03 437.095 MHz 1200 baud AX-25 AFSK
SO-50 01 Nov 12:17:17 12:21:21 32° 312° (NW) 12:25:32 436.795 FM
FUNcube-1 01 Nov 12:19:55 12:23:22 25° 292° (WNW) 12:26:45 145.950 - 145.970 MHz USB
PCSat 01 Nov 12:26:06 12:31:08 40° 249° (WSW) 12:36:08 145.825 MHz
ISS 01 Nov 12:38:16 12:40:20 15° 350° (N) 12:42:24 145.800 FM
Oscar 16 01 Nov 12:39:37 12:43:29 22° 64° (ENE) 12:47:20 437.025 USB, Beacon 2401.1428
KITSAT 1 01 Nov 12:46:43 12:53:54 34° 316° (NW) 13:01:08 435.175 FM
HO-68 01 Nov 12:47:12 12:48:51 11° 312° (NW) 12:50:31 435.675 MHz FM
UOSAT-12 01 Nov 12:54:18 12:58:53 69° 120° (ESE) 13:03:35 437.025 FM, 437.400 FM
JAS-1B 01 Nov 12:54:46 12:59:36 29° 64° (ENE) 13:04:29 435.800 - 435.900 CW/SSB
AO-Echo 01 Nov 13:06:00 13:09:33 20° 63° (ENE) 13:13:10 ?
Uribyol 2 01 Nov 13:14:43 13:18:28 20° 63° (ENE) 13:22:14 436.500 FM
Saudisat 1A 01 Nov 13:21:37 13:24:39 18° 42° (NE) 13:27:39 436.775 MHz
ITAMSAT 1 01 Nov 13:22:42 13:26:41 23° 64° (ENE) 13:30:40 435.822 SSB
Oscar 19 01 Nov 13:30:06 13:35:09 61° 73° (ENE) 13:40:13 437.125 CW, 437.150 USB
AO-27 01 Nov 14:09:14 14:14:21 60° 72° (ENE) 14:19:30 436.795 MHz FM
ISS 01 Nov 14:15:59 14:18:03 15° 10° (N) 14:20:07 145.800 FM
Oscar 16 01 Nov 14:17:33 14:22:30 47° 261° (W) 14:27:28 437.025 USB, Beacon 2401.1428
Gurwin Techsat 1B 01 Nov 14:31:19 14:36:25 50° 71° (ENE) 14:41:32 435.225 FM
UOSAT-12 01 Nov 14:36:15 14:39:31 18° 319° (NW) 14:42:50 437.025 FM, 437.400 FM
TMSAT-1 01 Nov 14:37:04 14:42:02 42° 70° (ENE) 14:47:00 436.925 FM
AO-Echo 01 Nov 14:42:59 14:47:51 53° 260° (W) 14:52:55 ?
JAS-1B 01 Nov 14:45:02 14:50:14 35° 263° (W) 14:55:26 435.800 - 435.900 CW/SSB
KITSAT 1 01 Nov 14:49:02 14:52:17 13° 343° (NNW) 14:55:33 435.175 FM
Uribyol 2 01 Nov 14:52:26 14:57:32 53° 260° (W) 15:02:39 436.500 FM
AO-7 01 Nov 14:53:34 15:00:13 28° 55° (NE) 15:06:53 29.400 - 29.500 MHz
Saudisat 1A 01 Nov 15:00:14 15:04:37 64° 241° (WSW) 15:08:59 436.775 MHz
ITAMSAT 1 01 Nov 15:00:49 15:05:50 47° 261° (W) 15:10:53 435.822 SSB
Uosat F 01 Nov 15:02:03 15:02:25 10° 57° (ENE) 15:02:48 435.120 FM
Oscar 19 01 Nov 15:11:51 15:14:53 16° 269° (W) 15:17:56 437.125 CW, 437.150 USB
JAS-2 01 Nov 15:48:12 15:51:09 13° 51° (NE) 15:54:13 435.800 - 435.900 CW/SSB, 435.910 FM
AO-27 01 Nov 15:50:58 15:54:14 17° 269° (W) 15:57:32 436.795 MHz FM
ISS 01 Nov 15:52:12 15:55:24 42° 30° (NNE) 15:58:36 145.800 FM
Gurwin Techsat 1B 01 Nov 16:12:45 16:16:38 20° 267° (W) 16:20:33 435.225 FM
TMSAT-1 01 Nov 16:17:49 16:22:05 24° 266° (W) 16:26:22 436.925 FM
Uosat F 01 Nov 16:35:19 16:40:20 79° 74° (ENE) 16:45:24 435.120 FM
AO-7 01 Nov 16:44:05 16:52:19 70° 255° (WSW) 17:00:37 29.400 - 29.500 MHz
KITSAT 1 01 Nov 16:49:08 16:52:11 12° 15° (NNE) 16:55:14 435.175 FM
Hamsat 01 Nov 16:58:06 17:00:40 16° 65° (ENE) 17:03:15 145.90 MHz
OPAL 01 Nov 17:11:38 17:13:17 12° 92° (E) 17:14:56 ?
JAS-2 01 Nov 17:28:23 17:34:40 69° 72° (ENE) 17:41:50 435.800 - 435.900 CW/SSB, 435.910 FM
ISS 01 Nov 17:29:13 17:31:56 23° 226° (SW) 17:34:39 145.800 FM
Oscar 10/S400 01 Nov 18:02:25 18:24:36 59° 182° (S) 01:48:40 145.825 - 145.975 CW/USB, Beacon 145.810 USB
AO-40 01 Nov 18:08:42 22:10:56 38° 190° (S) 02:38:44 Beacon 2401.320
Uosat F 01 Nov 18:18:00 18:19:41 12° 271° (W) 18:21:22 435.120 FM
SO-67 01 Nov 18:27:26 18:29:35 16° 68° (ENE) 18:31:46 435.3500 MHz FM
Hamsat 01 Nov 18:32:17 18:36:16 43° 262° (W) 18:40:16 145.90 MHz
KITSAT 1 01 Nov 18:43:33 18:50:40 33° 43° (NE) 18:57:45 435.175 FM
AO-7 01 Nov 18:43:42 18:46:29 12° 273° (W) 18:49:17 29.400 - 29.500 MHz
OPAL 01 Nov 18:47:45 18:52:43 77° 288° (WNW) 18:57:39 ?
STRAND 1 01 Nov 19:08:01 19:12:15 25° 95° (E) 19:16:26 ?
SO-50 01 Nov 19:08:04 19:12:23 31° 48° (NE) 19:16:44 436.795 FM
JAS-2 01 Nov 19:15:51 19:20:28 21° 273° (W) 19:25:29 435.800 - 435.900 CW/SSB, 435.910 FM
RS-15 01 Nov 19:16:21 19:22:32 17° 98° (E) 19:28:39 29.354 - 29.394 USB, Beacon 29.352 USB
HO-68 01 Nov 19:38:16 19:43:32 23° 57° (ENE) 19:48:48 435.675 MHz FM
UOSAT-12 01 Nov 19:46:15 19:47:33 11° 33° (NNE) 19:48:51 437.025 FM, 437.400 FM
SO-67 01 Nov 19:59:21 20:02:20 27° 264° (W) 20:05:20 435.3500 MHz FM
KITSAT 1 01 Nov 20:38:39 20:46:39 67° 245° (WSW) 20:54:36 435.175 FM
UKube-1 01 Nov 20:46:39 20:49:17 16° 64° (ENE) 20:51:57 145.840 MHz, 145.915 MHz
STRAND 1 01 Nov 20:46:46 20:51:31 39° 291° (WNW) 20:56:14 ?
SO-50 01 Nov 20:48:33 20:52:59 36° 245° (WSW) 20:57:25 436.795 FM
Oscar 11 01 Nov 21:18:58 21:22:45 31° 70° (ENE) 21:26:33 145.825 FM, Beacon 2401.500 USB
RS-15 01 Nov 21:21:59 21:32:57 79° 118° (ESE) 21:43:53 29.354 - 29.394 USB, Beacon 29.352 USB
HO-68 01 Nov 21:23:21 21:30:30 75° 255° (WSW) 21:37:43 435.675 MHz FM
UOSAT-12 01 Nov 21:24:04 21:28:44 57° 54° (NE) 21:33:18 437.025 FM, 437.400 FM
FUNcube-1 01 Nov 21:39:51 21:43:24 23° 68° (ENE) 21:46:55 145.950 - 145.970 MHz USB
MaSat-1 01 Nov 22:14:39 22:18:31 81° 295° (WNW) 22:22:00 437.345 MHz
UKube-1 01 Nov 22:20:51 22:25:04 49° 260° (W) 22:29:19 145.840 MHz, 145.915 MHz
ZACube-1 01 Nov 22:32:28 22:37:00 86° 77° (ENE) 22:41:28 437.345 MHz
KITSAT 1 01 Nov 22:38:25 22:40:30 11° 263° (W) 22:42:35 435.175 FM
Oscar 11 01 Nov 22:55:32 22:58:57 23° 266° (W) 23:02:23 145.825 FM, Beacon 2401.500 USB
UOSAT-12 01 Nov 23:05:27 23:08:24 17° 251° (WSW) 23:11:19 437.025 FM, 437.400 FM
FUNcube-1 01 Nov 23:15:31 23:19:36 33° 263° (W) 23:23:38 145.950 - 145.970 MHz USB
HO-68 01 Nov 23:16:59 23:19:19 12° 273° (W) 23:21:40 435.675 MHz FM
RS-15 01 Nov 23:36:42 23:46:26 35° 324° (NW) 23:56:17 29.354 - 29.394 USB, Beacon 29.352 USB
Sapphire 02 Nov 01:05:10 01:08:19 16° 104° (ESE) 01:11:28 437.095 MHz 1200 baud AX-25 AFSK
PCSat 02 Nov 01:25:05 01:29:32 27° 108° (ESE) 01:33:59 145.825 MHz
Oscar 19 02 Nov 01:42:33 01:46:26 22° 93° (E) 01:50:19 437.125 CW, 437.150 USB
RS-15 02 Nov 01:55:55 01:03:26 20° 359° (N) 01:11:04 29.354 - 29.394 USB, Beacon 29.352 USB
AO-27 02 Nov 01:23:12 01:27:09 21° 93° (E) 01:31:03 436.795 MHz FM
JAS-1B 02 Nov 01:25:43 01:32:57 60° 102° (ESE) 01:41:33 435.800 - 435.900 CW/SSB
Oscar 16 02 Nov 01:29:04 01:34:09 61° 101° (ESE) 01:39:12 437.025 USB, Beacon 2401.1428
Sapphire 02 Nov 01:45:42 01:51:05 70° 301° (WNW) 01:56:32 437.095 MHz 1200 baud AX-25 AFSK
Gurwin Techsat 1B 02 Nov 01:48:27 01:52:18 20° 92° (E) 01:56:07 435.225 FM
AO-Echo 02 Nov 01:50:08 01:55:21 52° 100° (E) 02:00:27 ?
TMSAT-1 02 Nov 01:54:05 01:57:23 17° 91° (E) 02:00:40 436.925 FM
Uribyol 2 02 Nov 02:05:11 02:10:18 56° 101° (E) 02:15:22 436.500 FM
PCSat 02 Nov 02:07:32 02:12:41 44° 306° (NW) 02:17:53 145.825 MHz
ITAMSAT 1 02 Nov 02:13:34 02:18:46 63° 102° (ESE) 02:23:54 435.822 SSB
Oscar 19 02 Nov 02:21:07 02:25:58 45° 290° (WNW) 02:30:49 437.125 CW, 437.150 USB
PANSAT 02 Nov 02:57:12 02:57:51 10° 170° (S) 02:58:29 not established
AO-27 02 Nov 03:01:53 03:06:53 47° 290° (WNW) 03:11:50 436.795 MHz FM
Oscar 16 02 Nov 03:09:44 03:12:59 17° 298° (WNW) 03:16:14 437.025 USB, Beacon 2401.1428
RS-15 02 Nov 03:11:00 03:20:42 33° 34° (NNE) 03:30:39 29.354 - 29.394 USB, Beacon 29.352 USB
JAS-1B 02 Nov 03:17:11 03:23:14 30° 296° (WNW) 03:30:11 435.800 - 435.900 CW/SSB
OPAL 02 Nov 03:25:11 03:29:11 24° 63° (ENE) 03:33:09 ?
Gurwin Techsat 1B 02 Nov 03:27:23 03:32:32 51° 289° (WNW) 03:37:39 435.225 FM
AO-Echo 02 Nov 03:29:47 03:33:41 21° 297° (WNW) 03:37:33 ?
TMSAT-1 02 Nov 03:32:29 03:37:43 61° 287° (WNW) 03:42:55 436.925 FM
Sapphire 02 Nov 03:32:55 03:35:32 13° 321° (NW) 03:38:10 437.095 MHz 1200 baud AX-25 AFSK
JAS-2 02 Nov 03:41:30 03:43:54 12° 82° (E) 03:46:16 435.800 - 435.900 CW/SSB, 435.910 FM
Uosat F 02 Nov 03:43:48 03:47:52 24° 95° (E) 03:51:54 435.120 FM
Uribyol 2 02 Nov 03:45:44 03:49:20 19° 298° (WNW) 03:52:54 436.500 FM
AO-7 02 Nov 03:45:52 03:53:38 41° 99° (E) 04:01:21 29.400 - 29.500 MHz
ITAMSAT 1 02 Nov 03:54:23 03:57:43 17° 299° (WNW) 04:01:03 435.822 SSB
Saudisat 1A 02 Nov 04:06:39 04:10:33 33° 115° (ESE) 04:14:30 436.775 MHz
PANSAT 02 Nov 04:35:36 04:37:12 12° 183° (S) 04:38:49 not established
